TimeCDT,TemperatureF,Dew PointF,Humidity,Sea Level PressureIn,VisibilityMPH,Wind Direction,Wind SpeedMPH,Gust SpeedMPH,PrecipitationIn,Events,Conditions,WindDirDegrees,DateUTC
12:52 AM,61.0,57.0,87,29.71,10.0,South,10.4,-,N/A,,Overcast,180,2013-04-08 05:52:00
1:52 AM,62.1,57.0,84,29.71,10.0,SSE,5.8,-,N/A,,Overcast,150,2013-04-08 06:52:00
2:52 AM,62.1,57.0,84,29.66,10.0,SE,12.7,-,N/A,,Mostly Cloudy,140,2013-04-08 07:52:00
3:52 AM,60.1,55.9,86,29.67,10.0,SSE,10.4,-,N/A,,Mostly Cloudy,160,2013-04-08 08:52:00
4:52 AM,61.0,55.9,83,29.67,10.0,Calm,Calm,-,N/A,,Partly Cloudy,0,2013-04-08 09:52:00
5:07 AM,60.8,55.4,82,29.69,10.0,Calm,Calm,-,N/A,,Mostly Cloudy,0,2013-04-08 10:07:00
5:52 AM,61.0,55.9,83,29.67,10.0,South,8.1,-,N/A,,Overcast,170,2013-04-08 10:52:00
6:52 AM,60.1,55.9,86,29.70,10.0,Calm,Calm,-,N/A,,Mostly Cloudy,0,2013-04-08 11:52:00
7:42 AM,60.8,57.2,88,29.73,10.0,SSE,5.8,-,N/A,,Overcast,160,2013-04-08 12:42:00
7:52 AM,61.0,57.0,87,29.71,10.0,South,10.4,-,N/A,,Overcast,170,2013-04-08 12:52:00
8:08 AM,62.6,57.2,82,29.73,10.0,South,11.5,-,N/A,,Overcast,180,2013-04-08 13:08:00
8:35 AM,64.4,57.2,77,29.73,10.0,South,17.3,-,N/A,,Scattered Clouds,170,2013-04-08 13:35:00
8:52 AM,63.0,57.9,84,29.71,10.0,South,13.8,-,0.00,Rain,Light Rain,180,2013-04-08 13:52:00
9:00 AM,64.4,57.2,77,29.73,10.0,South,12.7,-,0.00,,Mostly Cloudy,180,2013-04-08 14:00:00
9:52 AM,66.0,59.0,78,29.71,10.0,South,15.0,-,0.00,,Mostly Cloudy,180,2013-04-08 14:52:00
10:52 AM,66.0,59.0,78,29.71,10.0,South,23.0,28.8,N/A,,Overcast,180,2013-04-08 15:52:00
11:52 AM,66.0,57.9,75,29.72,10.0,South,18.4,25.3,N/A,,Overcast,170,2013-04-08 16:52:00
12:52 PM,66.9,59.0,76,29.71,10.0,South,21.9,-,N/A,,Overcast,170,2013-04-08 17:52:00
1:52 PM,68.0,59.0,73,29.69,10.0,South,18.4,21.9,N/A,,Overcast,170,2013-04-08 18:52:00
2:52 PM,68.0,59.0,73,29.68,10.0,South,16.1,20.7,N/A,,Overcast,170,2013-04-08 19:52:00
3:52 PM,69.1,59.0,70,29.67,10.0,South,17.3,-,N/A,,Overcast,170,2013-04-08 20:52:00
4:52 PM,69.1,60.1,73,29.66,10.0,SSE,12.7,-,N/A,,Overcast,160,2013-04-08 21:52:00
5:45 PM,69.8,59.0,68,29.67,10.0,SSE,15.0,24.2,N/A,,Overcast,160,2013-04-08 22:45:00
5:52 PM,70.0,59.0,68,29.65,10.0,SSE,16.1,24.2,N/A,,Overcast,160,2013-04-08 22:52:00
6:52 PM,69.1,59.0,70,29.66,10.0,SSE,17.3,-,N/A,,Overcast,150,2013-04-08 23:52:00
7:52 PM,66.9,57.9,73,29.66,10.0,SE,12.7,-,N/A,,Overcast,140,2013-04-09 00:52:00
8:52 PM,66.0,57.9,75,29.67,10.0,SE,10.4,-,N/A,,Overcast,130,2013-04-09 01:52:00
9:52 PM,66.0,57.9,75,29.68,10.0,SE,9.2,-,N/A,,Overcast,130,2013-04-09 02:52:00
10:52 PM,64.9,57.9,78,29.68,10.0,ESE,9.2,-,N/A,,Overcast,120,2013-04-09 03:52:00
11:52 PM,64.9,57.9,78,29.66,10.0,ESE,10.4,-,N/A,,Overcast,120,2013-04-09 04:52:00